logo
Rechercher aéroport 
image banner adimage banner adimage banner ad
image banner ad

CL36 - Sharp Mem Hospital

Situé à San Diego, United States

ICAO - CL36, IATA -

Données fournies par Airmate  

Information générale

Coordonnées: N32°47'58" W117°9'12"
Élévation : 460 feet MSL.
 
Voir autres Aéroports à California

Données opérationnelles

Special qualification required
Heure actuelle UTC:
Heure actuelle locale:
Météo à : KMYF - Montgomery-Gibbs Executive ( 2 km )
METAR: KMYF 281349Z 00000KT 1/2SM FG VV005 18/18 A2991 RMK AO2
Voir NOTAMs / SUP AIP / TFR affectant cet aéroport [VIEW]
Fréquences de communication: [VIEW]

Pistes:

Coordonnées de l'aéroport

Adresse: San Diego United States

Vue satellite de CL36